C/2022 A3 ( Lemmon-ATLAS )

Japanese version
Home page
Updated on May 24, 2022

---------------------------------------------------------------------

* Profile

Discovery Date January 10 and March 1, 2022
Magnitude 20.3 mag, 19.2 mag
Discoverer Mt. Lemmon Survey, Asteroid Terrestrial-Impact Last Alert System (ATLAS) search program

* Pictures

* Orbital Elements

Epoch 2022 Jan. 21.0 TT = JDT 2459600.5
T 2023 Sept. 28.82926 TT                                Rudenko
q   3.7024219            (2000.0)            P               Q
z  +0.0009898      Peri.  234.86451     -0.48745510     +0.66448818
 +/-0.0000057      Node   325.48221     +0.60668420     -0.20879152
e   0.9963353      Incl.   88.36009     -0.62795048     -0.71753854
From 153 observations 2021 Apr. 30-2022 Apr. 26, mean residual 0".3.

* Finding Charts

* Magnitudes Graph

        m1 = 7.5 + 5 log d + 10.0 log r

---------------------------------------------------------------------

The orbital elements are published on M.P.E.C. 2022-K19.
The charts are made with StellaNavigator Ver.10 (AstroArts).
The magnitudes graphs are made with Comet for Windows.

---------------------------------------------------------------------

Copyright(C) Seiichi Yoshida (comet@aerith.net). All rights reserved.